Natures Way Challenger — WDF7294 — position and weather

sailwx.info

Track history (hours):
 
Tides and Currents Weather Stations Pressure Air Temp Water Temp Dewpoint Dewpoint Depression Visibility Wind Speed Wind Dir Waves Ship Positions

Natures Way Challenger

Owner: Natures Way Marine, LLC, Theodore, AL. More information available from US FCC via Universal Licensing System and Coast Guard Vessel Documentation Center.

Last reported at 2014-Nov-25 02:24 UTC. Time now 2014-Nov-27 17:11 UTC.
Position N 29°50' W 091°11'.

Length 14 m.

Type: Towing. MMSI: 367483050.

Date/timePositionNaut miles runAvg speedWind from/ knotsBaromVisibWave heightAir tempDewpointWater temp
2014-Nov-25 02:24N 29°50' W 091°11'2 2.5
2014-Nov-25 01:33N 29°48' W 091°10'2 2.5
2014-Nov-25 00:33N 29°46' W 091°11'0 0.5
2014-Nov-24 23:33N 29°45' W 091°11'2 2.1
2014-Nov-24 22:33N 29°43' W 091°12'2 2.0
2014-Nov-24 21:33N 29°42' W 091°13'3 2.5
2014-Nov-24 20:33N 29°40' W 091°14'2 2.4
2014-Nov-24 19:33N 29°39' W 091°17'3 2.5
2014-Nov-24 18:33N 29°38' W 091°20'  
2014-Nov-20 10:28N 29°32' W 094°54'4 4.4
2014-Nov-20 09:33N 29°36' W 094°56'5 4.5
2014-Nov-20 08:30N 29°40' W 094°59'4 3.7
2014-Nov-20 07:29N 29°43' W 095°01'7 2.9
2014-Nov-20 05:13N 29°44' W 095°09'2 0.6
2014-Nov-20 02:22N 29°45' W 095°10'0 0.1
2014-Nov-19 23:15N 29°45' W 095°11'2 2.2
2014-Nov-19 22:31N 29°44' W 095°09'3 1.7
2014-Nov-19 20:32N 29°46' W 095°06'2 1.3
2014-Nov-19 19:21N 29°47' W 095°05'3 1.3
2014-Nov-19 17:06N 29°45' W 095°06'3 5.5
2014-Nov-19 16:30N 29°45' W 095°10'0 0.1
2014-Nov-19 15:32N 29°45' W 095°10'4 4.4
2014-Nov-19 14:33N 29°46' W 095°05'5 4.6
2014-Nov-19 13:33N 29°43' W 095°01'5 4.9
2014-Nov-19 12:33N 29°39' W 094°58'6 5.6
2014-Nov-19 11:33N 29°34' W 094°55'6 5.5
2014-Nov-19 10:32N 29°29' W 094°52'  
Track history (hours):
 
Tides and Currents Weather Stations Pressure Air Temp Water Temp Dewpoint Dewpoint Depression Visibility Wind Speed Wind Dir Waves Ship Positions

Natures Way Challenger

Owner: Natures Way Marine, LLC, Theodore, AL. More information available from US FCC via Universal Licensing System and Coast Guard Vessel Documentation Center.

Last reported at 2014-Nov-25 02:24 UTC. Time now 2014-Nov-27 17:11 UTC.
Position N 29°50' W 091°11'.

Length 14 m.

Type: Towing. MMSI: 367483050.

Date/timePositionNaut miles runAvg speedWind from/ knotsBaromVisibWave heightAir tempDewpointWater temp
2014-Nov-25 02:24N 29°50' W 091°11'2 2.5
2014-Nov-25 01:33N 29°48' W 091°10'2 2.5
2014-Nov-25 00:33N 29°46' W 091°11'0 0.5
2014-Nov-24 23:33N 29°45' W 091°11'2 2.1
2014-Nov-24 22:33N 29°43' W 091°12'2 2.0
2014-Nov-24 21:33N 29°42' W 091°13'3 2.5
2014-Nov-24 20:33N 29°40' W 091°14'2 2.4
2014-Nov-24 19:33N 29°39' W 091°17'3 2.5
2014-Nov-24 18:33N 29°38' W 091°20'  
2014-Nov-20 10:28N 29°32' W 094°54'4 4.4
2014-Nov-20 09:33N 29°36' W 094°56'5 4.5
2014-Nov-20 08:30N 29°40' W 094°59'4 3.7
2014-Nov-20 07:29N 29°43' W 095°01'7 2.9
2014-Nov-20 05:13N 29°44' W 095°09'2 0.6
2014-Nov-20 02:22N 29°45' W 095°10'0 0.1
2014-Nov-19 23:15N 29°45' W 095°11'2 2.2
2014-Nov-19 22:31N 29°44' W 095°09'3 1.7
2014-Nov-19 20:32N 29°46' W 095°06'2 1.3
2014-Nov-19 19:21N 29°47' W 095°05'3 1.3
2014-Nov-19 17:06N 29°45' W 095°06'3 5.5
2014-Nov-19 16:30N 29°45' W 095°10'0 0.1
2014-Nov-19 15:32N 29°45' W 095°10'4 4.4
2014-Nov-19 14:33N 29°46' W 095°05'5 4.6
2014-Nov-19 13:33N 29°43' W 095°01'5 4.9
2014-Nov-19 12:33N 29°39' W 094°58'6 5.6
2014-Nov-19 11:33N 29°34' W 094°55'6 5.5
2014-Nov-19 10:32N 29°29' W 094°52'  

Dump ship's entire track history